Vorticity
6 7 8 7 6 8 9 6 6 7 7 6 6 5 4 8 5 4 3 9 15 14
7 6 6 7 8 8 7 5 7 7 7 7 6 7 6 3 4 7 14 13 8 4
6 7 8 9 8 6 6 7 7 7 5 5 8 5 3 3 12 15 11 5 1 1
8 9 8 7 7 7 7 6 7 6 7 8 2 3 7 15 13 7 3 1 4 2
8 7 6 8 6 6 5 6 7 13 3 2 3 11 16 10 4 1 2 3 3 2
7 6 9 6 4 6 7 10 10 2 1 6 15 13 8 3 0 3 3 3 -1 3
7 10 6 4 5 10 10 5 0 4 5 17 11 6 2 1 4 5 2 4 2 6
9 5 5 5 13 12 2 1 4 5 17 10 6 2 1 4 1 2 -0 1 8 2
6 6 8 12 11 1 4 1 7 16 9 6 1 1 4 1 -3 -0 5 6 3 3
4 8 15 -1 6 2 4 8 15 8 5 2 3 3 -1 -1 6 5 7 5 5 22
6 10 2 5 2 3 11 14 8 5 2 3 3 1 3 3 5 7 5 4 37 40
3 9 3 3 4 15 13 7 4 2 3 3 2 3 2 -0 5 6 5 41 36 14
5 2 10 3 14 12 6 4 3 3 4 -0 1 3 1 6 7 4 37 41 16 28
4 5 7 13 12 6 4 3 4 4 0 2 5 5 6 5 7 37 38 16 29 26
Height
5726 5726 5724 5720 5717 5713 5708 5704 5700 5695 5691 5686 5681 5675 5670 5663 5656 5649 5640 5632 5622 5614
5719 5718 5715 5711 5707 5703 5699 5694 5690 5686 5681 5676 5670 5664 5657 5650 5643 5633 5624 5615 5606 5597
5711 5708 5705 5702 5698 5694 5690 5685 5681 5676 5671 5665 5658 5651 5644 5636 5626 5618 5609 5600 5590 5580
5702 5699 5696 5692 5688 5684 5680 5676 5671 5665 5659 5653 5646 5638 5630 5621 5612 5603 5594 5583 5572 5560
5694 5690 5687 5683 5678 5674 5671 5666 5660 5654 5648 5641 5633 5624 5616 5607 5598 5588 5577 5565 5552 5538
5685 5681 5678 5673 5669 5666 5661 5655 5649 5643 5636 5628 5619 5610 5601 5592 5583 5571 5557 5544 5531 5516
5676 5673 5669 5665 5660 5655 5650 5644 5637 5630 5622 5613 5605 5596 5588 5578 5566 5553 5539 5524 5507 5490
5667 5664 5660 5655 5650 5644 5639 5633 5625 5617 5608 5599 5591 5582 5573 5561 5549 5535 5520 5503 5484 5465
5658 5654 5650 5645 5639 5634 5628 5620 5612 5603 5595 5586 5577 5567 5555 5543 5530 5513 5496 5479 5460 5439
5649 5644 5640 5635 5630 5623 5616 5608 5599 5591 5582 5572 5562 5550 5538 5524 5510 5493 5473 5453 5433 5414
5640 5636 5630 5625 5619 5612 5603 5595 5587 5578 5568 5557 5545 5533 5520 5506 5489 5471 5451 5429 5406 5384
5630 5625 5620 5614 5608 5600 5591 5583 5574 5564 5554 5542 5529 5515 5500 5486 5469 5450 5430 5405 5382 5364
5621 5616 5610 5603 5595 5588 5580 5572 5562 5551 5538 5526 5512 5495 5478 5460 5443 5428 5409 5389 5369 5351
5611 5605 5598 5591 5584 5577 5569 5560 5550 5539 5525 5510 5493 5476 5457 5437 5416 5398 5384 5368 5354 5338